Orbital Elements
Epoch 2005 May 30.0 TT = JDT 2453520.5
T 2005 June 4.01162 TT MPC
q 2.0498886 (2000.0) P Q
n 0.15195864 Peri. 231.08720 +0.94942828 -0.31045283
a 3.4779163 Node 146.92271 +0.30808023 +0.89223494
e 0.4105986 Incl. 4.93574 +0.06060122 +0.32792660
P 6.49
From 221 observations 1998 Sept. 14-2011 Oct. 15, mean residual 0".49.
|